Date String (YYYY-MM-DD hh:mm:ss) UTC,Instrument flags,absolute air pressure of the measurement (hPa),sample flow rate (lpm),inlet stack bypass flow (lpm),air temperature of the measurement (°C),ambient temperature measured by the external sensor (°C),aerosol sample conditioner tube jacket temperature (°C),OPC LED temperature (°C),internal box temperature (°C),relative humidity of the measurement (%),span deviation,mass concentration of particles derived from Lorenz-Mie calculation of OPC scattering (μg/m³),mass concentration of particles derived from Lorenz-Mie calculation of OPC scattering (μg/m³),mass concentration of particles derived from Lorenz-Mie calculation of OPC scattering (μg/m³)
DateTimeUTC,F1_M11,P_M11,Q1_M11,Q2_M11,T1_M11,T2_M11,T3_M11,T4_M11,T5_M11,U1_M11,ZSPAN_M11,X2_M11,X0_M11,X1_M11
2023-10-16 08:00:00,SystemResetWarning,0839.6,5.00,000.00,028.5,026.9,000.0,037.0,030.1,13.4,0000.0,0003.42,0005.70,0003.18
2023-10-16 08:01:00,SystemResetWarning,0839.7,5.02,000.00,028.5,026.9,000.0,037.0,030.1,13.4,0000.0,0003.40,0005.67,0003.17
2023-10-16 08:02:00,SystemResetWarning,0839.7,5.00,000.00,028.5,026.9,000.0,037.0,030.1,13.4,0000.0,0003.40,0006.56,0003.17
2023-10-16 08:03:00,SystemResetWarning,0839.7,4.99,000.00,028.5,026.9,000.0,037.0,030.1,13.4,0000.0,0003.43,0007.14,0003.18
2023-10-16 08:04:00,SystemResetWarning,0839.7,4.99,000.00,028.5,026.9,000.0,037.0,030.1,13.4,0000.0,0003.46,0007.26,0003.19
2023-10-16 08:05:00,SystemResetWarning,0839.7,5.00,000.00,028.5,026.9,000.0,037.0,030.1,13.4,0000.0,0003.49,0007.79,0003.19
2023-10-16 08:06:00,SystemResetWarning,0839.7,5.00,000.00,028.5,026.9,000.0,037.0,030.1,13.5,0000.0,0003.48,0008.85,0003.20
2023-10-16 08:07:00,SystemResetWarning,0839.7,5.00,000.00,028.5,026.9,000.0,037.0,030.1,13.5,0000.0,0003.50,0009.44,0003.20
2023-10-16 08:08:00,SystemResetWarning,0839.7,5.00,000.00,028.5,026.9,000.0,037.0,030.1,13.5,0000.0,0003.51,0009.56,0003.20
2023-10-16 08:09:00,SystemResetWarning,0839.7,5.00,000.00,028.5,026.9,000.0,037.0,030.1,13.5,0000.0,0003.53,0009.36,0003.21
2023-10-16 08:10:00,SystemResetWarning,0839.7,5.01,000.00,028.5,026.9,000.0,037.0,030.1,13.5,0000.0,0003.52,0009.34,0003.21
2023-10-16 08:11:00,SystemResetWarning,0839.6,4.99,000.00,028.5,026.9,000.0,037.0,030.0,13.5,0000.0,0003.54,0009.47,0003.22
2023-10-16 08:12:00,SystemResetWarning,0839.7,4.99,000.00,028.4,026.9,000.0,036.9,030.0,13.5,0000.0,0003.55,0009.68,0003.22
2023-10-16 08:13:00,SystemResetWarning,0839.7,5.01,000.00,028.4,026.8,000.0,036.9,030.0,13.5,0000.0,0003.53,0009.47,0003.22
2023-10-16 08:14:00,SystemResetWarning,0839.7,5.02,000.00,028.4,026.8,000.0,036.9,029.9,13.5,0000.0,0003.53,0009.27,0003.22
2023-10-16 08:15:00,SystemResetWarning,0839.7,5.00,000.00,028.4,026.8,000.0,036.9,029.9,13.6,0000.0,0003.52,0009.24,0003.22
2023-10-16 08:16:00,SystemResetWarning,0839.7,4.99,000.00,028.4,026.8,000.0,036.9,029.9,13.6,0000.0,0003.51,0008.91,0003.21
2023-10-16 08:17:00,SystemResetWarning,0839.7,4.99,000.00,028.3,026.7,000.0,036.9,029.9,13.6,0000.0,0003.52,0007.87,0003.20
2023-10-16 08:18:00,SystemResetWarning,0839.7,5.00,000.00,028.3,026.7,000.0,036.9,029.9,13.6,0000.0,0003.51,0007.35,0003.20
2023-10-16 08:19:00,SystemResetWarning,0839.7,5.01,000.00,028.3,026.7,000.0,036.9,029.9,13.7,0000.0,0003.50,0008.02,0003.20
2023-10-16 08:20:00,SystemResetWarning,0839.7,5.01,000.00,028.3,026.7,000.0,036.9,029.8,13.7,0000.0,0003.48,0007.71,0003.19
2023-10-16 08:21:00,SystemResetWarning,0839.7,5.00,000.00,028.3,026.6,000.0,036.8,029.8,13.8,0000.0,0003.46,0007.64,0003.19
2023-10-16 08:22:00,SystemResetWarning,0839.7,5.00,000.00,028.3,026.6,000.0,036.8,029.8,13.8,0000.0,0003.43,0007.39,0003.18
2023-10-16 08:23:00,SystemResetWarning,0839.7,5.00,000.00,028.2,026.6,000.0,036.8,029.8,13.8,0000.0,0003.42,0007.44,0003.18
2023-10-16 08:24:00,SystemResetWarning,0839.7,5.00,000.00,028.2,026.6,000.0,036.8,029.8,13.8,0000.0,0003.40,0007.34,0003.18
2023-10-16 08:25:00,SystemResetWarning,0839.7,5.00,000.00,028.2,026.6,000.0,036.8,029.8,13.8,0000.0,0003.40,0007.23,0003.17
2023-10-16 08:26:00,SystemResetWarning,0839.7,5.00,000.00,028.2,026.6,000.0,036.8,029.8,13.8,0000.0,0003.40,0007.25,0003.17
2023-10-16 08:27:00,SystemResetWarning,0839.7,5.00,000.00,028.2,026.6,000.0,036.8,029.8,13.8,0000.0,0003.41,0007.38,0003.18
2023-10-16 08:28:00,SystemResetWarning,0839.7,5.00,000.00,028.2,026.7,000.0,036.7,029.8,13.8,0000.0,0003.38,0007.23,0003.18
2023-10-16 08:29:00,SystemResetWarning,0839.7,5.00,000.00,028.2,026.7,000.0,036.7,029.8,13.8,0000.0,0003.41,0007.20,0003.19
2023-10-16 08:30:00,SystemResetWarning,0839.7,5.00,000.00,028.2,026.7,000.0,036.7,029.9,13.8,0000.0,0003.41,0005.85,0003.19
2023-10-16 08:31:00,SystemResetWarning,0839.7,5.00,000.00,028.2,026.7,000.0,036.7,029.9,13.8,0000.0,0003.41,0005.85,0003.18
2023-10-16 08:32:00,SystemResetWarning,0839.7,5.00,000.00,028.2,026.7,000.0,036.7,029.9,13.8,0000.0,0003.42,0006.41,0003.17
2023-10-16 08:33:00,SystemResetWarning,0839.7,5.00,000.00,028.2,026.8,000.0,036.7,029.9,13.8,0000.0,0003.42,0007.45,0003.17
2023-10-16 08:34:00,SystemResetWarning,0839.7,5.01,000.00,028.2,026.8,000.0,036.7,029.9,13.8,0000.0,0003.43,0007.90,0003.17
2023-10-16 08:35:00,SystemResetWarning,0839.7,4.99,000.00,028.3,026.8,000.0,036.7,029.9,13.8,0000.0,0003.44,0007.76,0003.17
2023-10-16 08:36:00,SystemResetWarning,0839.7,4.99,000.00,028.3,026.8,000.0,036.7,029.9,13.8,0000.0,0003.44,0007.78,0003.17
2023-10-16 08:37:00,SystemResetWarning,0839.6,5.02,000.00,028.3,026.8,000.0,036.7,029.9,13.8,0000.0,0003.43,0007.82,0003.16
2023-10-16 08:38:00,SystemResetWarning,0839.7,4.99,000.00,028.3,026.8,000.0,036.7,029.9,13.8,0000.0,0003.43,0007.77,0003.16
2023-10-16 08:39:00,SystemResetWarning,0839.6,4.99,000.00,028.3,026.8,000.0,036.7,029.9,13.7,0000.0,0003.46,0007.81,0003.16
2023-10-16 08:40:00,SystemResetWarning,0839.6,5.00,000.00,028.3,026.8,000.0,036.7,029.9,13.7,0000.0,0003.44,0007.78,0003.14
2023-10-16 08:41:00,SystemResetWarning,0839.6,5.01,000.00,028.3,026.8,000.0,036.7,029.9,13.7,0000.0,0003.44,0007.79,0003.14
2023-10-16 08:42:00,SystemResetWarning,0839.6,5.01,000.00,028.3,026.8,000.0,036.7,029.9,13.7,0000.0,0003.46,0007.89,0003.14
2023-10-16 08:43:00,SystemResetWarning,0839.5,5.00,000.00,028.3,026.8,000.0,036.7,029.9,13.7,0000.0,0003.45,0007.74,0003.14
2023-10-16 08:44:00,SystemResetWarning,0839.5,4.98,000.00,028.3,026.8,000.0,036.7,029.9,13.7,0000.0,0003.46,0006.97,0003.15
2023-10-16 08:45:00,SystemResetWarning,0839.5,5.00,000.00,028.3,026.8,000.0,036.7,029.9,13.7,0000.0,0003.44,0005.49,0003.15
2023-10-16 08:46:00,SystemResetWarning,0839.5,5.01,000.00,028.3,026.8,000.0,036.7,029.9,13.7,0000.0,0003.44,0005.52,0003.14
2023-10-16 08:47:00,SystemResetWarning,0839.5,5.00,000.00,028.3,026.7,000.0,036.7,029.8,13.7,0000.0,0003.44,0005.54,0003.15
2023-10-16 08:48:00,SystemResetWarning,0839.5,5.00,000.00,028.3,026.7,000.0,036.7,029.8,13.7,0000.0,0003.46,0005.46,0003.16
2023-10-16 08:49:00,SystemResetWarning,0839.5,4.99,000.00,028.3,026.7,000.0,036.7,029.9,13.7,0000.0,0003.47,0005.52,0003.16
2023-10-16 08:50:00,SystemResetWarning,0839.6,5.01,000.00,028.3,026.7,000.0,036.7,029.9,13.7,0000.0,0003.46,0005.50,0003.17
2023-10-16 08:51:00,SystemResetWarning,0839.5,5.01,000.00,028.3,026.7,000.0,036.7,029.9,13.7,0000.0,0003.47,0005.57,0003.18
2023-10-16 08:52:00,SystemResetWarning,0839.5,4.99,000.00,028.3,026.7,000.0,036.7,029.9,13.7,0000.0,0003.48,0005.53,0003.18
2023-10-16 08:53:00,SystemResetWarning,0839.5,4.99,000.00,028.3,026.7,000.0,036.7,029.9,13.7,0000.0,0003.47,0005.39,0003.19
2023-10-16 08:54:00,SystemResetWarning,0839.5,5.01,000.00,028.3,026.7,000.0,036.7,029.9,13.7,0000.0,0003.47,0005.34,0003.18
2023-10-16 08:55:00,SystemResetWarning,0839.5,5.00,000.00,028.3,026.7,000.0,036.7,029.9,13.7,0000.0,0003.48,0005.34,0003.18
2023-10-16 08:56:00,SystemResetWarning,0839.4,4.98,000.00,028.3,026.7,000.0,036.7,029.9,13.7,0000.0,0003.48,0005.34,0003.19
2023-10-16 08:57:00,SystemResetWarning,0839.4,5.00,000.00,028.3,026.7,000.0,036.7,029.9,13.7,0000.0,0003.51,0005.51,0003.20
2023-10-16 08:58:00,SystemResetWarning,0839.3,5.00,000.00,028.3,026.7,000.0,036.7,029.9,13.7,0000.0,0003.52,0005.49,0003.21
2023-10-16 08:59:00,SystemResetWarning,0839.3,5.00,000.00,028.2,026.7,000.0,036.7,029.9,13.7,0000.0,0003.55,0005.84,0003.21
